www.pogodaiklimat.ru

Погода и климат >> Архив погоды >> Доминиканская Республика >> Пунта-Кана


ПОГОДА в Пунта-Кане

  • Прогноз погоды в Пунта-Кане
  • Монитор погоды в Пунта-Кане

АРХИВ ПОГОДЫ в Пунта-Кане

Время (UTC), дата Ветер
(напр.,м/с)
 
Видим.   Явления Облачность Т
(С)
Тd
(С)
f
(%)
Тe
(С)
Тes
(С)
Комфортность P
(гПа)
Po
(гПа)
Тmin
(С)
Tmax
(С)
R
(мм)
R24
(мм)
S
(см)
21 18.08 В 7 16 км гроза без осадков 9/8 540 м
[Cb cap Ac trans]
+29.6 +24.4 74 +42 +42 опасность
перегрева
1016.0 1014.6
00 19.08 ЮВ 2 8000 м слаб. дождь {гроза} 9/6 480 м
[Cb cap Ac und]
+26.2 +24.6 91 +37 +37 очень
душно
1016.1 1014.7 +25.2 +31.5 1
03 19.08 В 7 16 км зарница {гроза} 9/6 420 м
[Cb cap Ac und]
+27.7 +24.1 81 +39 +39 очень
душно
1017.2 1015.8 0.8
06 19.08 В 7 16 км зарница {гроза} 6/4 420 м
[Cb cap Ac trans]
+27.6 +24.1 81 +38 +38 очень
душно
1016.2 1014.8 +25.2 +31.5
09 19.08 В 4 16 км {гроза} 6/4 480 м
[Cb cap Ac trans]
+27.2 +24.1 83 +38 +38 очень
душно
1015.6 1014.2
12 19.08 В 4 16 км {гроза} 8/5 540 м
[Cb cap Ac trans Ci]
+28.2 +24.6 81 +40 +41 очень
душно
1017.1 1015.7 +25.0 +31.5
15 19.08 В 5 16 км зарница {гроза} 9/4 600 м
[Cb cap Ac trans Cs]
+29.0 +24.9 79 +42 +45 опасность
перегрева
1018.4 1017.0
18 19.08 ЮВ 5 16 км {гроза} 9/5 540 м
[Cb cap Ac As Cs]
+27.6 +23.7 79 +38 +41 очень
душно
1016.7 1015.3 +25.0 +29.5
21 19.08 ЮВ 3 16 км 9/3 540 м
[Cu med, cong Ac trans Cs]
+28.1 +24.2 79 +39 +41 очень
душно
1015.9 1014.5
00 20.08 В 2 16 км 8/4 500 м
[Cb cap Cs]
+26.6 +24.0 86 +37 +37 очень
душно
1016.1 1014.7 +30.0
03 20.08 В 2 16 км 3/3 540 м
[Cu med, cong]
+27.0 +24.8 88 +39 +39 очень
душно
1017.5 1016.1
06 20.08 В 2 16 км 3/3 540 м
[Cu med, cong]
+27.3 +24.9 87 +25.0 +30.0
09 20.08 В 4 16 км 4/3 540 м
[Cu med, cong Ci fib]
+27.2 +25.3 89 +39 +39 очень
душно
1015.9 1014.5
12 20.08 В 5 16 км 3/3 540 м
[Cu med, cong Ac trans Ci fib]
+28.6 +25.3 82 +42 +43 опасность
перегрева
1017.7 1016.3 +25.9 +30.0
15 20.08 В 6 16 км 3/3 660 м
[Cu med, cong Ac trans Ci fib]
+30.3 +24.9 73 +43 +49 опасность
перегрева
1019.0 1017.6
18 20.08 В 5 16 км 3/3 750 м
[Cu med, cong Ac trans Ci fib]
+30.3 +25.0 73 +43 +50 опасность
перегрева
1017.1 1015.7 +25.9 +31.2
21 20.08 В 5 16 км 3/3 750 м
[Cu med, cong Ac trans Ci fib]
+29.6 +24.8 75 +42 +44 опасность
перегрева
1016.0 1014.6
00 21.08 В 4 16 км 4/4 540 м
[Cu med, cong Ci fib]
+27.9 +24.7 83 +40 +40 очень
душно
1016.4 1015.0 +25.9 +31.6
03 21.08 В 4 16 км 4/4 540 м
[Cu med, cong Ci fib]
+28.0 +24.1 79 +39 +39 очень
душно
1017.8 1016.4
06 21.08 В 4 16 км 4/4 540 м
[Cu med, cong]
+27.8 +24.3 81 +39 +39 очень
душно
1016.8 1015.4 +25.9 +31.6
12 21.08 В 5 16 км в посл. час ливневой дождь 3/3 600 м
[Cu med, cong]
+28.6 +24.6 79 +41 +42 опасность
перегрева
1017.3 1015.9 +25.6 +31.6 0.0
15 21.08 В 5 16 км 5/3 750 м
[Cu med, cong Ac trans Ci fib]
+29.9 +24.2 72 +42 +48 опасность
перегрева
1017.6 1016.2
18 21.08 В 4 16 км 3/3 750 м
[Cu med, cong]
+30.4 +24.0 69 +42 +51 опасность
перегрева
1016.3 1014.9 +25.6 +31.8
21 21.08 В 5 16 км 3/3 750 м
[Cu med, cong]
+29.4 +24.1 73 +41 +42 опасность
перегрева
1015.1 1013.7
00 22.08 В 2 16 км 5/5 540 м
[Cb cap]
+27.3 +24.5 85 +39 +39 очень
душно
1015.6 1014.2 +25.6 +31.8
03 22.08 ЮВ 3 16 км 6/5 540 м
[Cb cap Ci fib]
+25.8 +22.3 81 +34 +34 очень
душно
1017.2 1015.8
06 22.08 штиль 0 16 км 5/3 540 м
[Cu med, cong Ci fib]
+24.2 +22.6 91 +32 +32 очень
душно
1016.6 1015.2 +23.8 +31.8
09 22.08 штиль 0 16 км 3/3 540 м
[Cu med, cong]
+22.6 +21.9 96 +30 +30 очень
душно
1015.5 1014.1
12 22.08 С 2 16 км 5/5 540 м
[Cb cap Ci fib]
+26.6 +24.4 88 +37 +39 очень
душно
1016.4 1015.0 +23.0 +31.8
15 22.08 В 5 16 км 4/4 660 м
[Cu med, cong]
+29.9 +25.6 78 +44 +50 опасность
перегрева
1017.1 1015.7
18 22.08 ЮВ 5 16 км 4/4 750 м
[Cu med, cong]
+30.2 +24.1 70 +42 +48 опасность
перегрева
1015.6 1014.2 +23.0 +31.5
21 22.08 В 4 16 км 3/3 750 м
[Cu med, cong]
+29.5 +23.7 71 +40 +42 очень
душно
1014.7 1013.3
00 23.08 ЮВ 3 16 км 6/3 600 м
[Cu med, cong Ac trans Ci fib]
+27.7 +24.3 82 +39 +39 очень
душно
1015.6 1014.2 +23.0 +31.5
06 23.08 ЮВ 4 16 км зарница 6/5 540 м
[Cb cap Ac trans]
+27.4 +23.0 77 +37 +37 очень
душно
1016.2 1014.8 +23.0 +31.5
12 23.08 В 5 16 км 4/3 600 м
[Cu med, cong Ci fib]
+28.7 +23.3 73 +39 +40 очень
душно
1017.1 1015.7 +26.6 +31.5
15 23.08 ЮВ 5 16 км 3/3 660 м
[Cu med, cong]
+30.2 +23.2 66 +40 +47 очень
душно
1017.8 1016.4
18 23.08 ЮВ 5 16 км 4/4 750 м
[Cu med, cong]
+30.4 +24.4 70 +42 +48 опасность
перегрева
1016.2 1014.8 +26.6 +31.4
21 23.08 ЮВ 7 16 км 6/5 600 м
[Cb cap Ci ing]
+30.6 +24.6 70 +43 +44 опасность
перегрева
1015.5 1014.1
00 24.08 ЮВ 4 16 км 5/4 540 м
[Cb cap Ci]
+28.8 +24.3 77 +40 +40 очень
душно
1016.3 1014.9 +26.6 +31.8
03 24.08 штиль 0 16 км зарница {гроза} 4/4 480 м
[Cb cap]
+25.1 +24.3 95 +35 +35 очень
душно
1017.4 1016.0
09 24.08 штиль 0 16 км 3/3 540 м
[Cu med, cong]
+23.8 +23.1 96 +32 +32 очень
душно
1016.0 1014.6
12 24.08 штиль 0 16 км 5/4 540 м
[Cu med, cong Ci fib]
+28.2 +26.3 89 +43 +46 опасность
перегрева
1017.5 1016.1 +23.8 +31.8
15 24.08 В 5 16 км 4/3 660 м
[Cu med, cong Ci fib]
+31.6 +25.0 68 +45 +52 опасность
перегрева
1018.2 1016.8
18 24.08 В 5 16 км 3/3 800 м
[Cu med, cong]
+31.8 +24.1 64 +44 +51 опасность
перегрева
1016.5 1015.1 +23.8 +32.2
00 25.08 В 2 16 км 4/3 600 м
[Cu med, cong Ci]
+26.8 +25.2 91 +39 +39 очень
душно
1016.1 1014.7 +23.8 +32.5
03 25.08 В 2 16 км 6/5 540 м
[Cu med, cong Ci]
+27.1 +24.7 87 +39 +39 очень
душно
1017.7 1016.3
06 25.08 штиль 0 16 км 6/5 540 м
[Cu med, cong Ci]
+27.8 +25.4 87 +41 +41 опасность
перегрева
1016.5 1015.1 +23.8 +32.5
09 25.08 штиль 0 16 км 3/3 480 м
[Cu med, cong]
+25.8 +25.0 95 +37 +37 очень
душно
1016.1 1014.7
12 25.08 штиль 0 16 км 3/3 540 м
[Cu med, cong]
+28.5 +25.6 84 +42 +45 опасность
перегрева
1016.5 1015.1 +24.4 +32.5
15 25.08 В 4 16 км 3/3 660 м
[Cu med, cong]
+30.2 +25.2 75 +44 +53 опасность
перегрева
1017.6 1016.2

 

Местоположение метеостанции Пунта-Кана (Доминиканская Республика): широта 18.57 долгота -68.36 высота над уровнем моря 12 м.

В архиве по умолчанию представлена погода в Пунта-Кане за последнюю неделю. Архивные данные за месяц целиком и за предыдущие месяцы, начиная с января 2011 года, Вы можете получить, выбрав интересующий диапазон дат из раскрывающегося списка и нажав кнопку "Ввод!".


*Определитесь, кто Вы:
робот инопланетянин человек

Внимание! Время в таблицах - всемирное. Для получения местного времени необходимо прибавить поправку, которая равна -4 ч.

Смотрите также архив погоды в соседних городах и на ближайших метеорологических станциях:

Погода в Ла Романа аэропорту (Доминиканская Республика) (61 км)
Погода в Сабана де ла Мар (Доминиканская Республика) (120 км)
Погода в Лас Америкас (Доминиканская Республика) (138 км)
Погода в Санто-Доминго (Доминиканская Республика) (161 км)
Погода в Сантьяго (Доминиканская Республика) (265 км)
Погода в Пуэрто-Плате (Доминиканская Республика) (265 км)
Погода в Бараоне (Доминиканская Республика) (292 км)
Погода в Шарлотта-Амалии (Виргинские Острова) (360 км)
Погода в Принцессы Юлианы аэропорту (Нидерландские Антилы) (558 км)
Погода в Ангилье (Ангилья) (562 км)

Пояснения к столбцам:

Ветер - указаны скорость ветра в м/с - средняя за 10 мин, порывы в срок и между сроками (в фигурных скобках) и направление, откуда дует ветер: С - северный, СВ - северо-восточный, В - восточный, ЮВ - юго-восточный, Ю - южный, ЮЗ - юго-западный, З - западный, СЗ - северо-западный.
Видимость - горизонтальная дальность видимости в метрах или километрах. При видимости от 1 до 10 км при отсутствии осадков обычно наблюдается дымка, при ухудшении видимости до 1 км и менее - туман. В сухую погоду видимость может ухудшаться дымом, пылью или мглою.
Явления - указаны атмосферные явления, наблюдавшиеся в срок или в последний час перед сроком; фигурными скобками обозначены явления, наблюдавшиеся между сроками (за 1-3 часа до срока); квадратными скобками обозначены град или гололедные отложения с указанием их диаметра в мм.
Облачность - указаны через наклонную черту общая и нижняя облачность в баллах и высота нижней границы облаков в метрах; квадратными скобками обозначены формы облаков: Ci - перистые, Cs - перисто-слоистые, Cc - перисто-кучевые, Ac - высококучевые, As - высокослоистые, Sc - слоисто-кучевые, Ns - слоисто-дождевые, Cu - кучевые, Cb - кучево-дождевые. Подробнее классификацию облаков см. в Атласе облаков (PDF).
T - Температура воздуха - температура, измеренная на высоте 2 м над землей.
Td - Температура точки росы - температура, при понижении до которой содержащийся в воздухе водяной пар достигнет насыщения.
f - Относительная влажность воздуха - влажноcть воздуха, измеренная на высоте 2 м над землей.
Te - Эффективная температура - температура, которую ощущает одетый по сезону человек в тени. Характеристика душности погоды. При расчете учитывается влияние влажности воздуха и скорости ветра на теплоощущения человека.
Tes - Эффективная температура на солнце - температура, которую ощущает человек, с поправкой на солнечный нагрев. Характеристика знойности погоды. Зависит от высоты солнца над горизонтом, облачности и скорости ветра. Ночью, в пасмурную погоду, а также при ветре 12 м/с и более поправка равна нулю.
P - Атмосферное давление - приведенное к уровню моря атмосферное давление.
Po - Атмосферное давление - измеренное на уровне метеостанции атмосферное давление.
Tmin - Минимальная температура - минимум температуры воздуха на высоте 2 м над землей.
Tmax - Максимальная температура - максимум температуры воздуха на высоте 2 м над землей.
R - Количество осадков - Количество выпавших осадков за период времени, мм. При наведении курсора мыши на число - период времени, за который выпало указанное количество осадков.
R24 - Количество осадков - Количество выпавших осадков за 24 часа, мм.
S - Снежный покров - Высота снежного покрова, см. При наведении курсора мыши на число - состояние снежного покрова и степень покрытия местности в баллах.